Location: Devore Heights
(34.2372°N, 117.4156°W)
Time: 18:24:48
(UTC+00:00)

S-56A Canister/Altair - Pass Details

Date: 21 September 2024
Orbit: 636 x 2487 km, 38.9° (Epoch: 14 October)

Event Time Altitude Azimuth Distance (km) Brightness Sun altitude
Rises 02:31:53 0° 278° (W) 3,079 13.0 -9.8°
Reaches altitude 10° 02:34:01 10° 283° (WNW) 2,270 11.6 -10.3°
Maximum altitude 02:39:09 56° 2° (N) 1,086 8.3 -11.3°
Enters shadow 02:45:34 13° 78° (ENE) 2,885 9.9 -12.6°
Drops below altitude 10° 02:46:32 10° 80° (E) 3,227 - -12.8°
Sets 02:50:07 0° 84° (E) 4,509 - -13.6°
